Powrót do katalogu

ATLAS 5 CENTAUR DEB

AktywnyHEO
NORAD 44645·DEBRIS·🇺🇸 United States

Wystrzelony Oct 17, 2018 z Cape Canaveral Space Force Station

Loading…

Następne Przeloty (najbliższe 24 godziny)

TLE

ŚwieżeSource: Space-Track

Epoka: Sep 14, 2026, 09:16 UTC

1 44645U 18079F   26257.38642111 -.00000162  00000-0  00000-0 0  9996
2 44645  13.5239   7.6504 4650016  12.5008 355.8417  1.89807015 54739

Śledź ATLAS 5 CENTAUR DEB w czasie rzeczywistym z AllMySat

Download on the App Store